Showing default

CENTISPACE-1 S11, 62580

Orbit data source: Space-Track

CENTISPACE-1 S11, 62580 is a payload satellite owned by Centispace (CN) in LEO that was launched on Mon, 13 Jan 2025 UTC via a JIELONG-3 launch vehicle from the Yellow Sea Launch Area, China (YSLA). Payload-class satellites include a variety of spacecraft equipped with specific instruments for various scientific and technological missions. These include communications satellites like Starlink; space stations such as the ISS; scientific satellites like the Hubble; Earth observation satellites from companies like Planet Labs, Umbra, and HawkEye 360; GPS; miniature CubeSats for education and research; and military/defense satellites.

Loading next visibility...
Identifier
62580, 2025-007F
Orbit
LEO
Country
Flag of CNCN / PRC
Related business
Manufacturer
DFH Shenzhen
Mission
Operational Commercial Nav/Com
Bus & Motor
WK01, Unknown motor
Mass
140 kg wet, 140 kg dry
Launch date (UTC)
2025-01-13 (10 months ago)
Launch vehicle
JIELONG-3
Launch site
Yellow Sea Launch Area, China (YSLA)
Object type
Payload
Rocket body
Debris
Shape & HBR
Box + 2 Pan, 1.0 m
Radar Cross Section
0.833 m², Medium (>0.1 m² and < 1m²)

Expand to show TLE details & history
Last TLE update: 17 hours ago

TLE from 17 hours ago
0 CENTISPACE-1 S11
1 62580U 25007F   25305.53382311  .00000822  00000-0  30960-3 0  9999
2 62580  54.9787  30.3738 0061489  86.6665 274.1350 14.39237211 42902
Epoch: 2025-11-01T12:48Z
TLE epoch observation values (Epoch: 2025-11-01T12:48:42.316Z)
Latitude
-0.00002°
Longitude
157.13494°
Altitude
759.173 km
Speed
7.477 km/s
True Right ascension
02h 01m 29s
True Declination
0° 00' 00"
Sunlit
Object was in full shadow at epoch
Visualization orbit readout
Latitude
Unknown
Longitude
Unknown
Altitude
Unknown
Speed
Unknown
Apparent Right ascension
Unknown
Apparent Declination
Unknown
Sunlit
N/A
Visualization observer readout
Local Sidereal Time
01:18:01
Azimuth
Unknown
Elevation
Unknown
Doppler factor
Unknown
Orbital elements
Apogee altitude
804.885 km
Perigee altitude
717.089 km
Semi-major axis
7,139.124 km
Eccentricity
0.00615
Inclination
54.9787°
RAAN
30.3738°
Arg. of periapsis
86.6665°
True anomaly
273.43185°
Mean anomaly
274.135°
Eccentric anomaly
273.78346°
Mean motion
3.59812 °/min
Orbital period
100.05 mins
BSTAR
0.0003096
Loading maneuver chart data...
Computing Atmospheric mass density...
Loading historical data...
Loading historical data...
Loading historical data...
Loading historical data...
Loading historical data...
Loading historical data...
Loading historical data...

Documentation

Showing up to 5 results
|